This demonstration page uses our WeatherBlox Daily Observations layout. Learn more.

Left ArrowRight Arrow

41.86663, -103.66717

Hourly Observations for July 4, 2022

Temp ( °F °C ) Dew Point ( °F °C ) Humidity (%) Winds ( mph kmh ) Pressure ( in mb ) Visibility ( mi km ) Precip ( " mm )
12:53 am 00:53 Clear 65 18.3 61 16.1 87 87 ESE 5 7 29.70 1006 10 16 0.00 0.00
1:53 am 01:53 Clear 64 17.8 61 16.1 90 90 SE 7 11 29.73 1007 10 16 0.00 0.00
2:53 am 02:53 Clear 64 17.8 61 16.1 90 90 E 6 9 29.71 1006 10 16 0.00 0.00
3:53 am 03:53 Clear 63 17.2 60 15.6 90 90 ESE 6 9 29.71 1006 8 13 0.00 0.00
4:53 am 04:53 Mostly Clear with Mist and Fog 62 16.7 60 15.6 93 93 Calm 29.75 1008 6 10 0.00 0.00
5:34 am 05:34 Partly Cloudy with Mist and Fog 61 16 59 15 94 94 Calm 29.77 1008 3 4 0.00 0.00
5:49 am 05:49 Partly Cloudy with Mist and Fog 61 16 59 15 94 94 WNW 5 7 29.77 1008 3 5 0.00 0.00
5:53 am 05:53 Partly Cloudy with Mist and Fog 61 16.1 59 15 93 93 NW 6 9 29.79 1009 4 6 0.00 0.00
6:53 am 06:53 Sunny 66 18.9 59 15 78 78 NE 3 6 29.79 1009 10 16 0.00 0.00
7:53 am 07:53 Sunny 69 20.6 60 15.6 73 73 W 8 13 29.81 1009 10 16 0.00 0.00
8:53 am 08:53 Sunny 74 23.3 61 16.1 64 64 WNW 8 13 29.81 1010 10 16 0.00 0.00
9:53 am 09:53 Sunny 79 26.1 59 15 50 50 undefined N/A 29.83 1010 10 16 0.00 0.00
10:53 am 10:53 Sunny 82 27.8 59 15 46 46 WNW 6 9 29.82 1010 10 16 0.00 0.00
11:53 am 11:53 Sunny 87 30.6 59 15 39 39 Calm 29.80 1009 10 16 0.00 0.00
12:53 pm 12:53 Sunny 89 31.7 59 15 36 36 VRB 5 7 29.79 1009 10 16 0.00 0.00
1:53 pm 13:53 Sunny 92 33.3 57 13.9 31 31 VRB 5 7 29.76 1008 10 16 0.00 0.00
2:53 pm 14:53 Sunny 95 35 55 12.8 26 26 ENE 5 7 29.74 1007 10 16 0.00 0.00
3:53 pm 15:53 Sunny 94 34.4 57 13.9 29 29 ESE 8 13 29.73 1007 10 16 0.00 0.00
4:53 pm 16:53 Mostly Sunny 88 31.1 59 15 38 38 W 10 17 29.77 1008 10 16 0.00 0.00
5:10 pm 17:10 Partly Cloudy with Thunderstorms 85 29.4 52 11.1 32 32 SW 26 43 29.63 1003 10 16 0.00 0.00
5:25 pm 17:25 Mostly Cloudy with Nearby Thunderstorms 78 25.6 54 12.2 43 43 SSW 29 46 29.70 1006 6 10 0.00 0.00
5:53 pm 17:53 Partly Cloudy with Nearby Thunderstorms 83 28.3 50 10 32 32 S 23 37 29.80 1009 10 16 0.00 0.00
6:13 pm 18:13 Mostly Sunny 81 27.2 52 11.1 37 37 S 18 30 29.64 1004 10 16 0.00 0.00
6:53 pm 18:53 Sunny 80 26.7 53 11.7 39 39 SSE 9 15 29.78 1008 10 16 0.00 0.00
7:53 pm 19:53 Sunny 78 25.6 56 13.3 47 47 SW 6 9 29.78 1009 10 16 0.00 0.00
8:53 pm 20:53 Clear 75 23.9 58 14.4 55 55 Calm 29.80 1009 10 16 0.00 0.00
9:53 pm 21:53 Clear 74 23.3 57 13.9 56 56 ENE 13 20 29.81 1009 10 16 0.00 0.00
10:53 pm 22:53 Clear 73 22.8 59 15 62 62 SSW 6 9 29.83 1010 10 16 0.00 0.00
11:53 pm 23:53 Mostly Clear with Light Rain 70 21.1 60 15.6 71 71 Calm 29.84 1010 10 16 0.00 0.00

Powered by AerisWeather